AirNav   Pilot Hours Calculator
 
 296 users online  

N30 Cherry Ridge Airport
Honesdale, Pennsylvania, USA

GOING TO HONESDALE?


FAA INFORMATION EFFECTIVE 25 FEBRUARY 2021

Location

FAA Identifier: N30
Lat/Long: 41-30-56.1300N 075-15-05.6150W
41-30.935500N 075-15.093583W
41.5155917,-75.2515597
(estimated)
Elevation: 1357 ft. / 414 m (estimated)
Variation: 13W (2005)
From city: 3 miles S of HONESDALE, PA
Time zone: UTC -5 (UTC -4 during Daylight Saving Time)
Zip code: 18431

Airport Operations

Airport use: Open to the public
Activation date: 03/1965
Control tower: no
ARTCC: NEW YORK CENTER
FSS: WILLIAMSPORT FLIGHT SERVICE STATION
NOTAMs facility: IPT (NOTAM-D service available)
Attendance: 0900-1700
Wind indicator: lighted
Segmented circle: no
Lights: SS-SR
Beacon: white-green (lighted land airport)
Operates sunset to sunrise.

Airport Communications

CTAF/UNICOM: 122.8
WILKES-BARRE APPROACH: 120.95
WILKES-BARRE DEPARTURE: 120.95

Nearby radio navigation aids

VOR radial/distance  VOR name  Freq  Var
LVZr064/24.5WILKES-BARRE VORTAC111.6010W
HUOr293/30.3HUGUENOT VOR/DME116.1011W
HNKr186/33.0HANCOCK VOR/DME116.8011W
STWr342/35.6STILLWATER VOR/DME109.6011W

Airport Services

Fuel available: 100LL
Parking: hangars and tiedowns
Airframe service: MAJOR
Powerplant service: MAJOR
Bottled oxygen: NONE
Bulk oxygen: NONE

Runway Information

Runway 18/36

Dimensions: 2986 x 50 ft. / 910 x 15 m
Surface: asphalt, in fair condition
Weight bearing capacity: 
Single wheel: 10.0
Runway edge lights: non-standard
RUNWAY 18  RUNWAY 36
Latitude: 41-31.175000N41-30.696000N
Longitude: 075-15.167500W075-15.019667W
Elevation: 1346.0 ft.1329.0 ft.
Traffic pattern: leftleft
Runway heading: 180 magnetic, 167 true000 magnetic, 347 true
Displaced threshold: 519 ft.589 ft.
Markings: basic, in good conditionbasic, in good condition
Touchdown point: yes, no lightsyes, no lights
Obstructions: 68 ft. tree, 1060 ft. from runway, 149 ft. left of centerline, 12:1 slope to clear
RWY 18 HAS 4FT TREES/BRUSH, 52 FT OUT, 50 FT LEFT/RIGHT OF CNTLRN.
45 ft. trees, 259 ft. from runway, 110 ft. left of centerline, 1:1 slope to clear
APCH RATIO 18:1 TO DTHR.

Airport Ownership and Management from official FAA records

Ownership: Privately-owned
Owner: EARLYNN AVIATION
30 BOMBER LANE
HONESDALE, PA 18431
Phone 570-253-5833
Manager: VINCENT VAN LAAK
30 BOMBER LANE
HONESDALE, PA 18431
Phone 570-253-5833

Airport Operational Statistics

Aircraft based on the field: 61
Single engine airplanes: 52
Multi engine airplanes: 3
Helicopters: 1
Ultralights: 5
    
Aircraft operations: avg 63/day *
65% local general aviation
35% transient general aviation
<1% military
* for 12-month period ending 21 October 2020

Additional Remarks

FOR CD CTC WILKES-BARRE APCH AT 570-655-2084.

Instrument Procedures

NOTE: All procedures below are presented as PDF files. If you need a reader for these files, you should download the free Adobe Reader.

NOT FOR NAVIGATION. Please procure official charts for flight.
FAA instrument procedures published for use from 25 February 2021 at 0901Z to 25 March 2021 at 0900Z.

 
IAPs - Instrument Approach Procedures
RNAV (GPS)-B   download (166KB)
VOR/DME-A   download (202KB)
NOTE: Special Take-Off Minimums/Departure Procedures apply   download (149KB)

Other nearby airports with instrument procedures:

70N - Spring Hill Airport (13 nm SW)
9N3 - Seamans Field Airport (23 nm W)
KMSV - Sullivan County International Airport (23 nm NE)
KMPO - Pocono Mountains Municipal Airport (23 nm S)
KAVP - Wilkes-Barre/Scranton International Airport (24 nm SW)
 
Loc | Ops | Rwys | IFR | FBO | Links
Com | Nav | Svcs | Stats | Notes
Area around N30 (Cherry Ridge Airport)
 
Road maps at: MapQuest Bing Google
 
Aerial photo
WARNING: Photo may not be current or correct
Aerial photo of N30 (Cherry Ridge Airport)
Photo by David M. Conboy
Photo taken 09-Mar-2020
looking south.

Do you have a better or more recent aerial photo of Cherry Ridge Airport that you would like to share? If so, please send us your photo.

 
Sectional chart

 
Airport distance calculator
Flying to Cherry Ridge Airport? Find the distance to fly.

From to N30

Sunrise and sunset
Times for 06-Mar-2021
 Local
(UTC-5)
 Zulu
(UTC)
Morning civil twilight06:0111:01
Sunrise06:2911:29
Sunset17:5622:56
Evening civil twilight18:2423:24

Current date and time
Zulu (UTC)  06-Mar-2021 08:14:21
Local (UTC-5)  06-Mar-2021 03:14:21
 
METAR
KMPO 
24nm S 
060753Z AUTO 28011KT 10SM BKN029 BKN034 M06/M11 A2986 RMK AO2 SLP137 T10561106
KMSV 
24nm NE 
060756Z AUTO 28005KT 9SM -SN BKN027 BKN036 OVC055 M06/M11 A2988 RMK AO2 SNB43 SLP137 P0000 T10611106 FZRANO
KAVP 
24nm SW 
060754Z 30007G15KT 10SM BKN039 OVC055 M02/M09 A2994 RMK AO2 SLP144 T10171089
KFWN 
34nm SE 
060753Z AUTO 24004KT 10SM CLR M02/M09 A2994 RMK AO2 SLP142 T10221089
K12N 
38nm SE 
060754Z AUTO 00000KT M03/M09 A2995 RMK AO1 SLP152 T10281089
KMGJ 
44nm E 
SuperAWOS
060754Z AUTO 00000KT 10SM FEW046 OVC055 M03/M11 A2993 RMK AO2 SLP139 T10281106
KHZL 
46nm SW 
060755Z AUTO 27005KT 10SM SCT028 SCT049 OVC060 M02/M07 A2994 RMK AO2
TAF
KAVP 
24nm SW 
060538Z 0606/0706 28009KT P6SM -SHSN FEW025 BKN045 FM060900 30010KT P6SM BKN028 FM061400 31014KT P6SM BKN035 FM070100 30005KT P6SM FEW030 BKN040
NOTAMs
Click for the latest NOTAMs
NOTAMs are issued by the DoD/FAA and will open in a separate window not controlled by AirNav.

 

 
 

FBO, Fuel Providers, and Aircraft Ground Support

  
 Business Name 
 
 Contact 
 
 Services / Description 
 
Fuel Prices
 
Comments
  
Earlynn Aviation Inc 570-253-5833
no information available

If you are affiliated with Earlynn Aviation Inc and would like to show here your services, contact info, web link, logo, and more, click here
100LL
SS $4.35 
 Updated 25-Feb-2021
 
   2 read write
SS=Self service
Update Fuel Prices
 

Where to Eat: Catering, Restaurants, Food shops

  
 Business Name 
 
 Contact 
 
 Services / Description 
 
Distance
 
Comments
  
Cherry Ridge Restaurant 570-253-5517
[web site]
[email]
Restaurant

More info about Cherry Ridge Restaurant
on airport  
   write
 

Would you like to see your business listed on this page?

 If your business provides an interesting product or service to pilots, flight crews, aircraft, or users of the Cherry Ridge Airport, you should consider listing it here.  To start the listing process, click on the button below
 
Add a business
 

Other Pages about Cherry Ridge Airport

www.flycherryridge.com
 
Update a link
 
Copyright © AirNav, LLC. All rights reserved. Privacy Policy  Contact